NKS1068 KFLL-KMCO

Flight info

Callsign NKS1068
Flight time 0h 34m
Altitude 18000
Route FRSBE2 WAPOM MUNGI1
Aircraft A320/M-SDE3FGHIRWY/LB1

Departure

Time 2026-05-03 20:43
Airport Fort Lauderdale Hollywood International Airport (KFLL)

Arrival

Time 2026-05-03 21:17
Airport Orlando International Airport (KMCO)
Time Latitude Longitude Altitude Speed Heading
2026-05-03 20:15 26.06996 -80.14667 18 ft 3 kts 288°
2026-05-03 20:15 26.06994 -80.14658 17 ft 0 kts 270°
2026-05-03 20:19 26.06994 -80.14663 16 ft 0 kts 270°
2026-05-03 20:19 26.06992 -80.14687 16 ft 6 kts 261°
2026-05-03 20:19 26.06968 -80.14737 17 ft 9 kts 233°
2026-05-03 20:20 26.06920 -80.14807 16 ft 13 kts 240°
2026-05-03 20:20 26.06910 -80.14916 16 ft 16 kts 270°
2026-05-03 20:20 26.06912 -80.15030 16 ft 13 kts 271°
2026-05-03 20:20 26.06923 -80.15112 16 ft 9 kts 313°
2026-05-03 20:21 26.06996 -80.15129 16 ft 13 kts
2026-05-03 20:21 26.07088 -80.15128 16 ft 13 kts 360°
2026-05-03 20:21 26.07110 -80.15128 16 ft 6 kts
2026-05-03 20:21 26.07184 -80.15127 16 ft 12 kts
2026-05-03 20:22 26.07282 -80.15127 16 ft 17 kts
2026-05-03 20:22 26.07416 -80.15123 16 ft 21 kts
2026-05-03 20:22 26.07490 -80.15203 16 ft 15 kts 274°
2026-05-03 20:22 26.07491 -80.15343 16 ft 21 kts 270°
2026-05-03 20:23 26.07493 -80.15526 16 ft 24 kts 270°
2026-05-03 20:23 26.07493 -80.15695 16 ft 23 kts 271°
2026-05-03 20:23 26.07495 -80.15874 16 ft 23 kts 271°
2026-05-03 20:23 26.07496 -80.16045 16 ft 23 kts 270°
2026-05-03 20:24 26.07496 -80.16202 16 ft 16 kts 270°
2026-05-03 20:24 26.07496 -80.16335 16 ft 16 kts 270°
2026-05-03 20:24 26.07497 -80.16452 16 ft 0 kts 271°
2026-05-03 20:24 26.07498 -80.16466 16 ft 5 kts 270°
2026-05-03 20:25 26.07498 -80.16526 16 ft 10 kts 269°
2026-05-03 20:25 26.07498 -80.16542 16 ft 0 kts 269°
2026-05-03 20:26 26.07498 -80.16550 16 ft 4 kts 270°
2026-05-03 20:27 26.07499 -80.16602 16 ft 10 kts 277°
2026-05-03 20:27 26.07509 -80.16627 17 ft 2 kts 306°
2026-05-03 20:33 26.07511 -80.16630 17 ft 2 kts 308°
2026-05-03 20:33 26.07519 -80.16636 16 ft 3 kts 326°
2026-05-03 20:33 26.07561 -80.16642 16 ft 9 kts 358°
2026-05-03 20:34 26.07586 -80.16642 17 ft 0 kts
2026-05-03 20:41 26.07593 -80.16642 19 ft 3 kts
2026-05-03 20:41 26.07644 -80.16641 17 ft 10 kts
2026-05-03 20:42 26.07693 -80.16572 20 ft 16 kts 86°
2026-05-03 20:42 26.07694 -80.16228 20 ft 81 kts 90°
2026-05-03 20:42 26.07687 -80.15359 17 ft 140 kts 90°
2026-05-03 20:42 26.07677 -80.14147 348 ft 162 kts 88°
2026-05-03 20:43 26.07626 -80.12871 1029 ft 168 kts 91°
2026-05-03 20:43 26.07577 -80.11566 1696 ft 168 kts 91°
2026-05-03 20:43 26.07549 -80.10269 2349 ft 167 kts 89°
2026-05-03 20:43 26.07833 -80.08998 2754 ft 180 kts 54°
2026-05-03 20:44 26.08706 -80.07901 3021 ft 201 kts 39°
2026-05-03 20:44 26.09895 -80.06940 3332 ft 224 kts 27°
2026-05-03 20:44 26.11386 -80.06189 3744 ft 247 kts 17°
2026-05-03 20:44 26.13098 -80.05535 3959 ft 268 kts 17°
2026-05-03 20:45 26.14920 -80.05084 3982 ft 269 kts
2026-05-03 20:45 26.16781 -80.05186 4002 ft 268 kts 347°
2026-05-03 20:45 26.18556 -80.05779 3999 ft 267 kts 339°
2026-05-03 20:45 26.20295 -80.06503 3995 ft 265 kts 332°
2026-05-03 20:46 26.21817 -80.07640 3996 ft 263 kts 316°
2026-05-03 20:46 26.22977 -80.09199 3999 ft 261 kts 300°
2026-05-03 20:46 26.23722 -80.11055 4260 ft 269 kts 290°
2026-05-03 20:46 26.24395 -80.12985 5400 ft 264 kts 290°
2026-05-03 20:47 26.25074 -80.14883 6465 ft 265 kts 290°
2026-05-03 20:47 26.25916 -80.16729 7444 ft 270 kts 301°
2026-05-03 20:47 26.26938 -80.18487 8599 ft 271 kts 300°
2026-05-03 20:47 26.27943 -80.20243 9689 ft 274 kts 299°
2026-05-03 20:48 26.28980 -80.22069 10420 ft 287 kts 298°
2026-05-03 20:48 26.30087 -80.24032 10847 ft 309 kts 299°
2026-05-03 20:48 26.31251 -80.26090 11570 ft 317 kts 299°
2026-05-03 20:48 26.32440 -80.28185 12412 ft 322 kts 299°
2026-05-03 20:49 26.33642 -80.30301 13235 ft 325 kts 299°
2026-05-03 20:49 26.34860 -80.32445 13994 ft 329 kts 298°
2026-05-03 20:49 26.36088 -80.34611 14687 ft 332 kts 298°
2026-05-03 20:49 26.37328 -80.36799 15417 ft 335 kts 298°
2026-05-03 20:50 26.38575 -80.39005 16129 ft 338 kts 298°
2026-05-03 20:50 26.39833 -80.41226 16792 ft 340 kts 298°
2026-05-03 20:50 26.41099 -80.43466 17448 ft 343 kts 297°
2026-05-03 20:50 26.42376 -80.45726 18111 ft 346 kts 297°
2026-05-03 20:51 26.43666 -80.48008 18698 ft 349 kts 297°
2026-05-03 20:51 26.44965 -80.50303 18955 ft 350 kts 297°
2026-05-03 20:51 26.46262 -80.52594 19026 ft 348 kts 297°
2026-05-03 20:51 26.47744 -80.54734 19049 ft 351 kts 308°
2026-05-03 20:52 26.49666 -80.56445 19043 ft 358 kts 322°
2026-05-03 20:52 26.51976 -80.57591 19045 ft 370 kts 336°
2026-05-03 20:52 26.54458 -80.58395 19044 ft 372 kts 337°
2026-05-03 20:52 26.56954 -80.59189 19046 ft 374 kts 338°
2026-05-03 20:53 26.59453 -80.59974 19044 ft 374 kts 337°
2026-05-03 20:53 26.61960 -80.60762 19043 ft 373 kts 337°
2026-05-03 20:53 26.64456 -80.61548 19042 ft 373 kts 337°
2026-05-03 20:53 26.66951 -80.62335 19046 ft 373 kts 337°
2026-05-03 20:54 26.69500 -80.63147 19053 ft 391 kts 337°
2026-05-03 20:54 26.74999 -80.64930 19046 ft 424 kts 338°
2026-05-03 20:54 26.77855 -80.65842 19048 ft 427 kts 338°
2026-05-03 20:55 26.80713 -80.66746 19054 ft 428 kts 338°
2026-05-03 20:55 26.83546 -80.67640 19050 ft 428 kts 338°
2026-05-03 20:55 26.86453 -80.68556 19048 ft 429 kts 338°
2026-05-03 20:55 26.89323 -80.69463 19052 ft 429 kts 338°
2026-05-03 20:56 26.92153 -80.70374 19055 ft 428 kts 337°
2026-05-03 20:56 26.94987 -80.71373 19055 ft 427 kts 335°
2026-05-03 20:56 26.97837 -80.72449 19059 ft 426 kts 335°
2026-05-03 20:56 27.00637 -80.73542 19056 ft 426 kts 334°
2026-05-03 20:57 27.03438 -80.74648 19064 ft 426 kts 334°
2026-05-03 20:57 27.06199 -80.75730 19064 ft 426 kts 334°
2026-05-03 20:57 27.09007 -80.76814 19067 ft 427 kts 335°
2026-05-03 20:57 27.11819 -80.77887 19063 ft 427 kts 335°
2026-05-03 20:58 27.14637 -80.78955 19067 ft 427 kts 335°
2026-05-03 20:58 27.17446 -80.80018 19065 ft 427 kts 335°
2026-05-03 20:58 27.20265 -80.81086 19074 ft 427 kts 335°
2026-05-03 20:58 27.23078 -80.82155 19069 ft 427 kts 335°
2026-05-03 20:59 27.25892 -80.83214 19076 ft 427 kts 335°
2026-05-03 20:59 27.28701 -80.84271 19076 ft 426 kts 335°
2026-05-03 20:59 27.31515 -80.85334 19071 ft 426 kts 335°
2026-05-03 20:59 27.34349 -80.86343 19079 ft 428 kts 337°
2026-05-03 21:00 27.37219 -80.87251 19066 ft 429 kts 338°
2026-05-03 21:00 27.38193 -80.87540 19066 ft 429 kts 339°
2026-05-03 21:00 27.43011 -80.88899 18848 ft 424 kts 340°
2026-05-03 21:00 27.45825 -80.89675 18696 ft 408 kts 339°
2026-05-03 21:01 27.48518 -80.90428 18580 ft 385 kts 339°
2026-05-03 21:01 27.51042 -80.91144 18125 ft 366 kts 338°
2026-05-03 21:01 27.53474 -80.91862 17316 ft 358 kts 338°
2026-05-03 21:01 27.55841 -80.92575 16787 ft 345 kts 338°
2026-05-03 21:02 27.58104 -80.93255 16369 ft 330 kts 338°
2026-05-03 21:02 27.60315 -80.93924 15965 ft 327 kts 338°
2026-05-03 21:02 27.62507 -80.94594 15557 ft 326 kts 338°
2026-05-03 21:02 27.64698 -80.95265 15145 ft 326 kts 338°
2026-05-03 21:03 27.66883 -80.95927 14736 ft 326 kts 339°
2026-05-03 21:03 27.69074 -80.96585 14330 ft 326 kts 339°
2026-05-03 21:03 27.71269 -80.97241 13918 ft 326 kts 339°
2026-05-03 21:03 27.73468 -80.97898 13478 ft 326 kts 339°
2026-05-03 21:04 27.75651 -80.98549 13068 ft 324 kts 339°
2026-05-03 21:04 27.77819 -80.99196 12661 ft 322 kts 339°
2026-05-03 21:04 27.79976 -80.99839 12260 ft 320 kts 339°
2026-05-03 21:04 27.82121 -81.00481 11857 ft 318 kts 339°
2026-05-03 21:05 27.84258 -81.01124 11456 ft 316 kts 339°
2026-05-03 21:05 27.86366 -81.01755 11222 ft 307 kts 339°
2026-05-03 21:05 27.88396 -81.02359 10719 ft 299 kts 339°
2026-05-03 21:05 27.90345 -81.02943 10305 ft 289 kts 339°
2026-05-03 21:06 27.92263 -81.03516 9874 ft 280 kts 339°
2026-05-03 21:06 27.94090 -81.04136 9459 ft 268 kts 333°
2026-05-03 21:06 27.95807 -81.04870 9084 ft 261 kts 334°
2026-05-03 21:06 27.97510 -81.05595 8712 ft 261 kts 334°
2026-05-03 21:07 27.99210 -81.06367 8354 ft 265 kts 326°
2026-05-03 21:07 28.00202 -81.07225 8094 ft 267 kts 308°
2026-05-03 21:07 28.01318 -81.09249 7681 ft 266 kts 294°
2026-05-03 21:07 28.02133 -81.11128 7324 ft 265 kts 293°
2026-05-03 21:08 28.02928 -81.13018 6969 ft 266 kts 293°
2026-05-03 21:08 28.03715 -81.14914 6619 ft 267 kts 292°
2026-05-03 21:08 28.04509 -81.16815 6247 ft 267 kts 293°
2026-05-03 21:08 28.05293 -81.18725 5870 ft 268 kts 293°
2026-05-03 21:09 28.06178 -81.20589 5494 ft 271 kts 302°
2026-05-03 21:09 28.07200 -81.22387 5126 ft 271 kts 303°
2026-05-03 21:09 28.08206 -81.24194 4763 ft 272 kts 304°
2026-05-03 21:09 28.09194 -81.26021 4365 ft 268 kts 303°
2026-05-03 21:10 28.09828 -81.27197 4123 ft 262 kts 305°
2026-05-03 21:10 28.11041 -81.28690 4013 ft 252 kts 321°
2026-05-03 21:10 28.12330 -81.29925 4019 ft 239 kts 323°
2026-05-03 21:10 28.13580 -81.31158 4022 ft 238 kts 321°
2026-05-03 21:11 28.14932 -81.32204 4019 ft 234 kts 340°
2026-05-03 21:11 28.16501 -81.32491 4033 ft 226 kts
2026-05-03 21:11 28.18023 -81.32484 4019 ft 212 kts
2026-05-03 21:11 28.19458 -81.32503 4015 ft 199 kts
2026-05-03 21:12 28.20807 -81.32502 4024 ft 190 kts
2026-05-03 21:12 28.22100 -81.32502 3876 ft 185 kts
2026-05-03 21:12 28.23390 -81.32504 3584 ft 185 kts
2026-05-03 21:12 28.24663 -81.32509 3357 ft 180 kts
2026-05-03 21:13 28.25901 -81.32515 3126 ft 176 kts
2026-05-03 21:13 28.27112 -81.32524 2905 ft 173 kts
2026-05-03 21:13 28.28309 -81.32532 2673 ft 172 kts
2026-05-03 21:13 28.29501 -81.32541 2448 ft 170 kts
2026-05-03 21:14 28.30686 -81.32551 2218 ft 170 kts
2026-05-03 21:14 28.31861 -81.32562 2001 ft 168 kts
2026-05-03 21:14 28.32995 -81.32575 1783 ft 154 kts
2026-05-03 21:14 28.34002 -81.32588 1578 ft 137 kts
2026-05-03 21:15 28.34930 -81.32599 1412 ft 130 kts
2026-05-03 21:15 28.35833 -81.32609 1246 ft 128 kts
2026-05-03 21:15 28.36731 -81.32617 1068 ft 128 kts
2026-05-03 21:15 28.37637 -81.32625 885 ft 132 kts
2026-05-03 21:16 28.38548 -81.32634 721 ft 130 kts
2026-05-03 21:16 28.39439 -81.32647 520 ft 128 kts
2026-05-03 21:16 28.40320 -81.32658 362 ft 128 kts
2026-05-03 21:16 28.41210 -81.32662 207 ft 127 kts
2026-05-03 21:17 28.42081 -81.32668 105 ft 123 kts
2026-05-03 21:17 28.42795 -81.32672 101 ft 81 kts 360°
2026-05-03 21:17 28.43272 -81.32677 101 ft 62 kts 360°
2026-05-03 21:17 28.43637 -81.32666 101 ft 30 kts 14°
2026-05-03 21:18 28.43765 -81.32509 99 ft 27 kts 62°
2026-05-03 21:18 28.43865 -81.32320 100 ft 28 kts 59°
2026-05-03 21:18 28.43953 -81.32152 101 ft 20 kts 59°
2026-05-03 21:18 28.43983 -81.32001 101 ft 17 kts 111°
2026-05-03 21:19 28.43928 -81.31868 99 ft 20 kts 108°
2026-05-03 21:19 28.43916 -81.31719 105 ft 16 kts 113°
2026-05-03 21:19 28.43818 -81.31678 105 ft 13 kts 144°
2026-05-03 21:19 28.43731 -81.31605 102 ft 18 kts 124°
2026-05-03 21:20 28.43699 -81.31451 100 ft 22 kts 99°
2026-05-03 21:20 28.43692 -81.31289 97 ft 16 kts 77°
2026-05-03 21:20 28.43662 -81.31176 95 ft 17 kts 143°
2026-05-03 21:20 28.43558 -81.31133 95 ft 15 kts 191°
2026-05-03 21:21 28.43473 -81.31180 94 ft 9 kts 224°
2026-05-03 21:21 28.43491 -81.31224 96 ft 5 kts 327°
2026-05-03 21:21 28.43511 -81.31240 94 ft 0 kts 325°